McGuire AFB, NJ

2:17 PM EDT on May 23, 2017 (GMT -0400)
McGuire Air Force Base

Weather History for KWRI - November, 2011

Change the Weather History Date:

Thursday, November 17, 2011

  Actual Average Record
Temperature  
Mean Temperature 46 °F -  
Max Temperature 53 °F 53 °F 66 °F (2013)
Min Temperature 36 °F 33 °F 26 °F (1996)
Degree Days  
Heating Degree Days 20    
Moisture  
Dew Point 35 °F    
Average Humidity 73    
Maximum Humidity 94    
Minimum Humidity 49    
Precipitation  
Precipitation 0.07 in - - ()
Sea Level Pressure  
Sea Level Pressure 29.88 in    
Wind  
Wind Speed 8 mph (NW)    
Max Wind Speed 16 mph    
Max Gust Speed 22 mph    
Visibility 10 miles    
Events Rain    
Averages and records for this station are not official NWS values.
T = Trace of Precipitation, MM = Missing Value Source: NWS Daily Summary

Daily Weather History Graph

Daily Weather History Graph

Search for Another Location

Airport or City:

Trip Planner

Search our weather history database for the weather conditions in past years. The results will help you decide how hot, cold, wet, or windy it might be!

Date:

Astronomy

Nov. 17, 2011 Rise Set
Actual Time 6:45 AM EST 4:40 PM EST
Civil Twilight 6:16 AM EST 5:09 PM EST
Nautical Twilight 5:43 AM EST 5:42 PM EST
Astronomical Twilight 5:11 AM EST 6:14 PM EST
Moon 10:58 PM EST (11/17) 11:53 AM EST (11/17)
Length of Visible Light 10h 53m
Length of Day
9h 55m
Waning Gibbous, 60% of the Moon is Illuminated
Nov 17
Waning Gibbous
Nov 18
Last Quarter
Nov 25
New
Dec 2
First Quarter
Dec 10
Full

Hourly Weather History & Observations

Time (EST) Temp. Windchill Dew Point Humidity Pressure Visibility Wind Dir Wind Speed Gust Speed Precip Events Conditions
12:04 AM 53.6 °F - 50.0 °F 88% 29.78 in 10.0 mi NNW 8.1 mph - N/A Rain Light Rain
12:20 AM 51.8 °F - 50.0 °F 94% 29.79 in 10.0 mi WNW 9.2 mph - N/A   Overcast
12:30 AM 51.8 °F - 50.0 °F 94% 29.78 in 10.0 mi NW 6.9 mph - N/A Rain Light Rain
12:54 AM 51.8 °F - 50.0 °F 94% 29.78 in 10.0 mi NW 8.1 mph - N/A   Overcast
12:55 AM 52.2 °F - 49.3 °F 90% 29.78 in 10.0 mi NW 8.1 mph - 0.01 in   Overcast
1:45 AM 51.8 °F - 48.2 °F 88% 29.82 in 10.0 mi WNW 8.1 mph - N/A Rain Light Rain
1:55 AM 51.4 °F - 48.7 °F 90% 29.81 in 10.0 mi WNW 6.9 mph - 0.00 in Rain Light Rain
2:00 AM 51.8 °F - 48.2 °F 88% 29.81 in 10.0 mi WNW 9.2 mph - N/A   Overcast
2:55 AM 51.1 °F - 48.2 °F 90% 29.81 in 10.0 mi WNW 8.1 mph - 0.00 in   Overcast
3:55 AM 50.7 °F - 47.1 °F 87% 29.83 in 10.0 mi WNW 6.9 mph - N/A   Overcast
4:55 AM 49.6 °F - 41.9 °F 75% 29.83 in 10.0 mi NW 10.4 mph - N/A   Overcast
5:55 AM 46.2 °F 40.5 °F 34.3 °F 63% 29.83 in 10.0 mi NNW 12.7 mph - N/A   Overcast
6:49 AM 44.6 °F 38.8 °F 32.0 °F 61% 29.85 in 10.0 mi NW 11.5 mph - N/A Rain Light Rain
6:55 AM 45.5 °F 40.3 °F 31.5 °F 58% 29.85 in 10.0 mi NNW 10.4 mph - 0.00 in Rain Light Rain
7:04 AM 44.6 °F 38.4 °F 32.0 °F 61% 29.84 in 10.0 mi NNW 12.7 mph - N/A   Overcast
7:10 AM 44.6 °F 38.4 °F 30.2 °F 57% 29.85 in 10.0 mi NW 12.7 mph - N/A Rain Light Rain
7:44 AM 44.6 °F 38.8 °F 30.2 °F 57% 29.88 in 10.0 mi NW 11.5 mph - N/A   Mostly Cloudy
7:53 AM 44.6 °F 39.2 °F 30.2 °F 57% 29.86 in 10.0 mi NNW 10.4 mph - N/A Rain Light Rain
7:55 AM 44.8 °F 39.9 °F 30.7 °F 58% 29.87 in 10.0 mi NNW 9.2 mph - 0.00 in Rain Light Rain
8:12 AM 44.6 °F 38.4 °F 30.2 °F 57% 29.90 in 10.0 mi WNW 12.7 mph - N/A   Scattered Clouds
8:55 AM 44.8 °F 39.9 °F 30.9 °F 58% 29.91 in 10.0 mi NW 9.2 mph - 0.00 in   Mostly Cloudy
9:55 AM 45.0 °F 39.7 °F 30.7 °F 57% 29.88 in 10.0 mi NNW 10.4 mph - N/A   Scattered Clouds
10:12 AM 44.6 °F 38.8 °F 32.0 °F 61% 29.88 in 10.0 mi NNW 11.5 mph - N/A Rain Light Rain
10:23 AM 44.6 °F 39.2 °F 32.0 °F 61% 29.86 in 10.0 mi NNW 10.4 mph - N/A   Partly Cloudy
11:47 AM 44.6 °F 37.8 °F 32.0 °F 61% 29.86 in 10.0 mi NNW 15.0 mph 21.9 mph N/A Rain Light Rain
11:55 AM 43.9 °F 36.5 °F 33.3 °F 66% 29.87 in 10.0 mi NW 16.1 mph 21.9 mph 0.00 in Rain Light Rain
12:55 PM 40.1 °F 31.6 °F 35.1 °F 82% 29.87 in 10.0 mi NW 16.1 mph - 0.05 in Rain Light Rain
1:47 PM 39.2 °F 37.0 °F 35.6 °F 87% 29.87 in 10.0 mi North 3.5 mph - N/A   Mostly Cloudy
1:52 PM 39.2 °F - 35.6 °F 87% 29.88 in 10.0 mi Calm Calm - N/A   Mostly Cloudy
1:55 PM 39.7 °F - 35.6 °F 85% 29.88 in 10.0 mi Calm Calm - 0.01 in   Mostly Cloudy
2:03 PM 39.2 °F 35.9 °F 35.6 °F 87% 29.88 in 10.0 mi WNW 4.6 mph - N/A   Mostly Cloudy
2:04 PM 39.2 °F 35.9 °F 35.6 °F 87% 29.88 in 10.0 mi NW 4.6 mph - N/A   Mostly Cloudy
2:05 PM 39.2 °F 35.9 °F 35.6 °F 87% 29.88 in 10.0 mi NW 4.6 mph - N/A   Mostly Cloudy
2:06 PM 39.2 °F 35.9 °F 35.6 °F 87% 29.88 in 10.0 mi NNW 4.6 mph - N/A   Mostly Cloudy
2:14 PM 39.2 °F - 35.6 °F 87% 29.86 in 10.0 mi Calm Calm - N/A   Mostly Cloudy
2:16 PM 39.2 °F 35.0 °F 35.6 °F 87% 29.85 in 10.0 mi NE 5.8 mph - N/A   Mostly Cloudy
2:21 PM 39.2 °F - 35.6 °F 87% 29.85 in 10.0 mi Calm Calm - N/A   Mostly Cloudy
2:29 PM 39.2 °F - 33.8 °F 81% 29.86 in 10.0 mi Calm Calm - N/A   Mostly Cloudy
2:38 PM 41.0 °F 39.0 °F 33.8 °F 76% 29.87 in 10.0 mi SSE 3.5 mph - N/A   Mostly Cloudy
2:55 PM 40.5 °F - 36.3 °F 85% 29.86 in 10.0 mi Calm Calm - 0.00 in   Mostly Cloudy
3:55 PM 41.2 °F - 35.1 °F 79% 29.87 in 10.0 mi Calm Calm - N/A   Partly Cloudy
4:55 PM 40.8 °F 36.9 °F 29.3 °F 64% 29.89 in 10.0 mi WNW 5.8 mph - N/A   Scattered Clouds
5:55 PM 40.6 °F 36.0 °F 28.8 °F 63% 29.93 in 10.0 mi West 6.9 mph - N/A   Mostly Cloudy
6:55 PM 42.6 °F 36.3 °F 24.4 °F 49% 29.97 in 10.0 mi West 11.5 mph - N/A   Overcast
7:55 PM 41.9 °F 35.4 °F 24.4 °F 50% 30.01 in 10.0 mi West 11.5 mph 19.6 mph N/A   Overcast
8:55 PM 40.6 °F 33.8 °F 23.9 °F 51% 30.04 in 10.0 mi West 11.5 mph - N/A   Partly Cloudy
9:55 PM 39.2 °F 32.5 °F 23.2 °F 53% 30.06 in 10.0 mi West 10.4 mph - N/A   Clear
10:55 PM 38.3 °F 31.4 °F 22.3 °F 53% 30.08 in 10.0 mi West 10.4 mph - N/A   Clear
11:55 PM 36.9 °F 31.4 °F 22.3 °F 56% 30.10 in 10.0 mi West 6.9 mph - N/A   Clear